Location: Asheville, NC
(35.6000°N, 82.5500°W)
Time: 20:03:09

XW-2D - Pass Details

Date: 09 March 2018
Orbit: 510 x 530 km, 97.5° (Epoch: 17 March)

Event Time Altitude Azimuth Distance (km) Brightness Sun altitude
Rises 05:42:27 0° 29° (NNE) 2,654 ? -14.4°
Reaches altitude 10° 05:45:01 10° 48° (NE) 1,764 ? -13.9°
Maximum altitude 05:47:49 19° 95° (E) 1,274 ? -13.3°
Drops below altitude 10° 05:50:37 10° 143° (SE) 1,761 ? -12.8°
Sets 05:53:10 0° 161° (SSE) 2,648 ? -12.2°
